| time (UTC) | temp F | wind direction | speed knots | gust knots | rain 1hr in | rain 24hr in | rain mn in | humidity % | barometer mb |
| 20260902100054 | 60 | 161 | 0.0 | 0.0 | 0.00 | 0.27 | 0.00 | 99 | 1021.2 |
| 20260902094551 | 61 | 161 | 0.0 | 0.0 | 0.00 | 0.27 | 0.00 | 99 | 1021.0 |
| 20260902093049 | 61 | 160 | 0.0 | 0.0 | 0.00 | 0.27 | 0.00 | 99 | 1020.9 |
| 20260902091555 | 61 | 161 | 0.0 | 0.0 | 0.00 | 0.27 | 0.00 | 99 | 1020.7 |
| 20260902090048 | 61 | 156 | 0.0 | 0.0 | 0.00 | 0.27 | 0.00 | 99 | 1020.6 |
| 20260902084547 | 61 | 156 | 0.0 | 0.0 | 0.00 | 0.27 | 0.00 | 99 | 1020.5 |
| 20260902083109 | 61 | 156 | 0.0 | 1.7 | 0.00 | 0.27 | 0.00 | 99 | 1020.3 |
| 20260902081546 | 61 | 159 | 0.0 | 0.0 | 0.00 | 0.27 | 0.00 | 99 | 1020.6 |
| 20260902080045 | 61 | 208 | 0.0 | 0.0 | 0.00 | 0.27 | 0.00 | 99 | 1020.7 |
| 20260902074544 | 61 | 157 | 0.0 | 0.0 | 0.00 | 0.27 | 0.00 | 99 | 1020.8 |
| 20260902073043 | 61 | 158 | 0.0 | 0.0 | 0.00 | 0.27 | 0.00 | 99 | 1020.8 |
| 20260902071542 | 61 | 157 | 0.0 | 0.0 | 0.00 | 0.27 | 0.00 | 99 | 1020.8 |
| 20260902070043 | 61 | 159 | 0.0 | 0.0 | 0.00 | 0.27 | 0.00 | 99 | 1020.5 |
| 20260902064544 | 61 | 160 | 0.0 | 0.0 | 0.00 | 0.27 | 0.00 | 99 | 1020.4 |
| 20260902063042 | 61 | 160 | 0.0 | 0.0 | 0.00 | 0.27 | 0.00 | 99 | 1020.4 |
| 20260902061547 | 61 | 160 | 0.0 | 0.0 | 0.00 | 0.27 | 0.00 | 99 | 1020.7 |
| 20260902060037 | 61 | 160 | 0.0 | 0.0 | 0.00 | 0.27 | 0.00 | 99 | 1020.7 |
| 20260902054539 | 61 | 160 | 0.0 | 0.0 | 0.00 | 0.27 | 0.00 | 99 | 1020.5 |
| 20260902053036 | 61 | 160 | 0.0 | 0.0 | 0.00 | 0.27 | 0.00 | 99 | 1020.5 |
| 20260902051535 | 61 | 160 | 0.0 | 0.0 | 0.00 | 0.27 | 0.00 | 99 | 1020.2 |
| 20260902050032 | 61 | 160 | 0.0 | 0.0 | 0.00 | 0.27 | 0.00 | 99 | 1020.1 |
| 20260902044531 | 61 | 160 | 0.0 | 0.0 | 0.00 | 0.27 | 0.00 | 99 | 1020.0 |
| 20260902043039 | 61 | 160 | 0.0 | 0.0 | 0.00 | 0.27 | 0.00 | 99 | 1019.7 |
| 20260902041526 | 60 | 160 | 0.0 | 0.0 | 0.00 | 0.27 | 0.00 | 99 | 1019.7 |
| 20260902040024 | 60 | 160 | 0.0 | 0.0 | 0.00 | 0.27 | 0.00 | 99 | 1019.3 |
| 20260902034522 | 61 | 160 | 0.0 | 0.0 | 0.00 | 0.27 | 0.27 | 99 | 1019.1 |
| 20260902033021 | 61 | 160 | 0.0 | 0.0 | 0.00 | 0.27 | 0.27 | 99 | 1018.9 |
| 20260902031533 | 61 | 160 | 0.0 | 0.0 | 0.00 | 0.27 | 0.27 | 99 | 1019.0 |
| 20260902030019 | 61 | 160 | 0.0 | 0.0 | 0.00 | 0.27 | 0.27 | 99 | 1019.0 |
| 20260902024518 | 61 | 160 | 0.0 | 0.0 | 0.00 | 0.27 | 0.27 | 99 | 1019.0 |
| 20260902023029 | 61 | 160 | 0.0 | 0.0 | 0.00 | 0.27 | 0.27 | 99 | 1019.4 |
| 20260902021516 | 61 | 160 | 0.0 | 0.0 | 0.00 | 0.27 | 0.27 | 99 | 1019.3 |
| 20260902020023 | 61 | 158 | 0.0 | 0.0 | 0.00 | 0.27 | 0.27 | 99 | 1019.3 |
| 20260902014520 | 62 | 158 | 0.0 | 0.0 | 0.00 | 0.27 | 0.27 | 98 | 1019.3 |
| 20260902013014 | 62 | 158 | 0.0 | 0.0 | 0.00 | 0.27 | 0.27 | 99 | 1019.1 |
| 20260902011515 | 62 | 158 | 0.0 | 0.0 | 0.00 | 0.27 | 0.27 | 98 | 1019.1 |
| 20260902010013 | 62 | 158 | 0.0 | 0.0 | 0.00 | 0.27 | 0.27 | 98 | 1019.2 |
| 20260902004508 | 62 | 158 | 0.0 | 0.0 | 0.00 | 0.27 | 0.27 | 98 | 1018.8 |
| 20260902003009 | 62 | 158 | 0.0 | 0.0 | 0.00 | 0.27 | 0.27 | 98 | 1018.8 |
| 20260902001507 | 62 | 158 | 0.0 | 0.0 | 0.00 | 0.27 | 0.27 | 98 | 1018.6 |
| 20260902000007 | 62 | 158 | 0.0 | 0.0 | 0.00 | 0.27 | 0.27 | 98 | 1018.5 |
| 20260901234505 | 62 | 158 | 0.0 | 0.0 | 0.00 | 0.27 | 0.27 | 98 | 1018.5 |
| 20260901233010 | 62 | 158 | 0.0 | 0.0 | 0.00 | 0.27 | 0.27 | 98 | 1018.6 |
| 20260901231509 | 62 | 158 | 0.0 | 0.0 | 0.00 | 0.27 | 0.27 | 98 | 1018.6 |
| 20260901230004 | 62 | 158 | 0.0 | 0.0 | 0.00 | 0.27 | 0.27 | 98 | 1018.3 |
| 20260901224502 | 62 | 158 | 0.0 | 0.0 | 0.00 | 0.27 | 0.27 | 98 | 1018.4 |
| 20260901223002 | 62 | 158 | 0.0 | 0.0 | 0.00 | 0.27 | 0.27 | 98 | 1018.4 |
| 20260901221624 | 62 | 158 | 0.0 | 0.0 | 0.00 | 0.27 | 0.27 | 98 | 1018.4 |
| 20260901220118 | 63 | 158 | 0.0 | 0.0 | 0.01 | 0.27 | 0.27 | 98 | 1018.4 |
| 20260901214556 | 63 | 158 | 0.0 | 0.0 | 0.01 | 0.27 | 0.27 | 98 | 1018.1 |
| 20260901213107 | 63 | 158 | 0.0 | 0.0 | 0.01 | 0.27 | 0.27 | 98 | 1018.0 |
| 20260901211555 | 63 | 158 | 0.0 | 0.0 | 0.01 | 0.27 | 0.27 | 98 | 1018.1 |
| 20260901210053 | 63 | 158 | 0.0 | 0.9 | 0.00 | 0.26 | 0.26 | 98 | 1017.8 |
| 20260901204608 | 64 | 158 | 0.0 | 0.9 | 0.01 | 0.26 | 0.26 | 98 | 1017.7 |
| 20260901203059 | 64 | 88 | 0.0 | 0.9 | 0.01 | 0.26 | 0.26 | 98 | 1017.5 |
| 20260901201556 | 64 | 165 | 0.0 | 0.9 | 0.02 | 0.26 | 0.26 | 98 | 1017.4 |
| 20260901200114 | 64 | 151 | 0.0 | 1.7 | 0.03 | 0.26 | 0.26 | 98 | 1017.4 |
| 20260901194606 | 64 | 144 | 0.0 | 0.9 | 0.03 | 0.25 | 0.25 | 98 | 1017.3 |
| 20260901193052 | 64 | 139 | 0.0 | 2.6 | 0.04 | 0.24 | 0.24 | 98 | 1017.4 |
| 20260901191623 | 64 | 138 | 0.0 | 1.7 | 0.06 | 0.24 | 0.24 | 99 | 1017.4 |
| 20260901190058 | 64 | 116 | 0.0 | 0.0 | 0.06 | 0.23 | 0.23 | 98 | 1017.5 |
| 20260901184548 | 63 | 118 | 0.0 | 1.7 | 0.05 | 0.22 | 0.22 | 98 | 1017.5 |
| 20260901183053 | 63 | 113 | 0.0 | 0.9 | 0.03 | 0.20 | 0.20 | 98 | 1017.6 |
| 20260901181605 | 63 | 101 | 0.0 | 3.5 | 0.01 | 0.18 | 0.18 | 98 | 1017.6 |
| 20260901180047 | 63 | 130 | 0.0 | 3.5 | 0.01 | 0.17 | 0.17 | 98 | 1017.3 |
| 20260901174546 | 63 | 159 | 0.0 | 3.5 | 0.01 | 0.17 | 0.17 | 98 | 1017.0 |
| 20260901173045 | 62 | 138 | 0.0 | 3.5 | 0.01 | 0.17 | 0.17 | 98 | 1017.0 |
| 20260901171549 | 62 | 92 | 0.0 | 3.5 | 0.01 | 0.17 | 0.17 | 98 | 1017.3 |
| 20260901170055 | 62 | 145 | 0.0 | 2.6 | 0.00 | 0.16 | 0.16 | 98 | 1017.2 |
| 20260901164543 | 63 | 158 | 0.0 | 1.7 | 0.00 | 0.16 | 0.16 | 98 | 1017.2 |
| 20260901163046 | 63 | 215 | 0.0 | 0.9 | 0.00 | 0.16 | 0.16 | 98 | 1017.4 |
| 20260901161542 | 63 | 149 | 0.0 | 2.6 | 0.00 | 0.16 | 0.16 | 98 | 1017.5 |
| 20260901154540 | 63 | 108 | 0.9 | 3.5 | 0.00 | 0.16 | 0.16 | 98 | 1017.1 |
| 20260901153044 | 63 | 82 | 0.0 | 2.6 | 0.00 | 0.16 | 0.16 | 98 | 1017.1 |
| 20260901151543 | 63 | 121 | 0.0 | 0.9 | 0.00 | 0.16 | 0.16 | 98 | 1017.4 |
| 20260901150045 | 63 | 148 | 0.0 | 0.9 | 0.00 | 0.16 | 0.16 | 98 | 1017.5 |
| 20260901144543 | 63 | 146 | 0.0 | 1.7 | 0.00 | 0.16 | 0.16 | 98 | 1017.1 |
| 20260901143038 | 63 | 92 | 0.0 | 0.9 | 0.00 | 0.16 | 0.16 | 98 | 1017.2 |
| 20260901141536 | 63 | 137 | 0.0 | 1.7 | 0.00 | 0.16 | 0.16 | 97 | 1017.3 |
| 20260901140101 | 63 | 146 | 0.0 | 0.9 | 0.02 | 0.16 | 0.16 | 97 | 1017.1 |
| 20260901134535 | 63 | 138 | 0.0 | 2.6 | 0.06 | 0.16 | 0.16 | 97 | 1017.2 |
| 20260901133030 | 64 | 86 | 0.0 | 0.9 | 0.11 | 0.16 | 0.16 | 97 | 1017.4 |
| 20260901131538 | 64 | 139 | 0.0 | 1.7 | 0.15 | 0.16 | 0.16 | 98 | 1017.6 |
| 20260901130031 | 64 | 239 | 0.0 | 0.0 | 0.14 | 0.14 | 0.14 | 97 | 1017.6 |
| 20260901124527 | 64 | 237 | 0.0 | 0.0 | 0.10 | 0.10 | 0.10 | 97 | 1017.5 |
| 20260901123030 | 64 | 314 | 0.0 | 0.0 | 0.05 | 0.05 | 0.05 | 97 | 1017.9 |
| 20260901121524 | 64 | 314 | 0.0 | 0.0 | 0.01 | 0.01 | 0.01 | 97 | 1017.7 |
| 20260901120023 | 64 | 314 | 0.0 | 0.0 | 0.00 | 0.00 | 0.00 | 97 | 1017.7 |
| 20260901114529 | 64 | 314 | 0.0 | 0.0 | 0.00 | 0.00 | 0.00 | 97 | 1017.5 |
| 20260901113022 | 64 | 314 | 0.0 | 0.0 | 0.00 | 0.00 | 0.00 | 96 | 1017.6 |
| 20260901111522 | 64 | 314 | 0.0 | 0.0 | 0.00 | 0.00 | 0.00 | 96 | 1017.5 |
| 20260901110021 | 64 | 314 | 0.0 | 0.0 | 0.00 | 0.00 | 0.00 | 96 | 1017.3 |
| 20260901104522 | 64 | 314 | 0.0 | 0.0 | 0.00 | 0.00 | 0.00 | 95 | 1017.2 |
| 20260901103018 | 65 | 314 | 0.0 | 0.0 | 0.00 | 0.00 | 0.00 | 94 | 1017.0 |
| 20260901101538 | 65 | 314 | 0.0 | 0.0 | 0.00 | 0.00 | 0.00 | 92 | 1016.9 |